CFG1576 EDDM-LEIB

Flight info

Callsign CFG1576
Flight time N/A
Altitude 33000
Route TURBU7Q TURBU Y107 TOBSO DCT BAKOR DCT MISPO DCT PIDAD DCT TALEP DCT RARQU DCT BALEN DCT SORAS N850 POS
Aircraft A320/M-SDE3FGHIRWY/LB1

Departure

Time 2026-05-06 15:16
Airport Munich Airport (EDDM)

Arrival

Time N/A
Airport Ibiza Airport (LEIB)
Time Latitude Longitude Altitude Speed Heading
2026-05-06 14:18 48.35112 11.77944 1468 ft 0 kts 83°
2026-05-06 14:59 48.35111 11.77927 1485 ft 2 kts 83°
2026-05-06 14:59 48.35109 11.77902 1505 ft 2 kts 85°
2026-05-06 14:59 48.35108 11.77877 1477 ft 2 kts 101°
2026-05-06 14:59 48.35117 11.77860 1475 ft 2 kts 175°
2026-05-06 15:00 48.35121 11.77859 1476 ft 0 kts 175°
2026-05-06 15:03 48.35120 11.77859 1485 ft 1 kts 176°
2026-05-06 15:03 48.35094 11.77852 1485 ft 4 kts 194°
2026-05-06 15:04 48.35070 11.77842 1485 ft 6 kts 194°
2026-05-06 15:04 48.35013 11.77840 1474 ft 8 kts 172°
2026-05-06 15:04 48.34960 11.77849 1481 ft 9 kts 173°
2026-05-06 15:04 48.34905 11.77859 1473 ft 7 kts 173°
2026-05-06 15:05 48.34862 11.77866 1485 ft 6 kts 173°
2026-05-06 15:05 48.34804 11.77877 1480 ft 10 kts 173°
2026-05-06 15:05 48.34744 11.77887 1479 ft 8 kts 173°
2026-05-06 15:05 48.34697 11.77895 1473 ft 6 kts 175°
2026-05-06 15:06 48.34666 11.77872 1481 ft 7 kts 230°
2026-05-06 15:06 48.34654 11.77771 1482 ft 11 kts 264°
2026-05-06 15:06 48.34645 11.77654 1485 ft 12 kts 263°
2026-05-06 15:06 48.34635 11.77525 1480 ft 14 kts 263°
2026-05-06 15:07 48.34622 11.77352 1473 ft 18 kts 263°
2026-05-06 15:07 48.34607 11.77162 1481 ft 19 kts 263°
2026-05-06 15:07 48.34592 11.76966 1480 ft 19 kts 263°
2026-05-06 15:07 48.34576 11.76764 1483 ft 20 kts 263°
2026-05-06 15:08 48.34561 11.76557 1485 ft 20 kts 263°
2026-05-06 15:08 48.34544 11.76346 1483 ft 21 kts 263°
2026-05-06 15:08 48.34528 11.76131 1485 ft 21 kts 263°
2026-05-06 15:08 48.34511 11.75912 1480 ft 21 kts 263°
2026-05-06 15:09 48.34494 11.75696 1474 ft 20 kts 263°
2026-05-06 15:09 48.34480 11.75512 1475 ft 15 kts 263°
2026-05-06 15:09 48.34468 11.75350 1485 ft 16 kts 263°
2026-05-06 15:09 48.34457 11.75252 1482 ft 7 kts 247°
2026-05-06 15:10 48.34422 11.75217 1485 ft 5 kts 187°
2026-05-06 15:10 48.34377 11.75222 1485 ft 8 kts 173°
2026-05-06 15:10 48.34328 11.75231 1485 ft 8 kts 173°
2026-05-06 15:10 48.34278 11.75240 1485 ft 6 kts 173°
2026-05-06 15:11 48.34241 11.75247 1482 ft 5 kts 173°
2026-05-06 15:11 48.34209 11.75252 1475 ft 5 kts 173°
2026-05-06 15:11 48.34202 11.75254 1479 ft 0 kts 173°
2026-05-06 15:12 48.34179 11.75258 1483 ft 9 kts 173°
2026-05-06 15:12 48.34113 11.75269 1485 ft 9 kts 173°
2026-05-06 15:12 48.34084 11.75300 1482 ft 4 kts 108°
2026-05-06 15:12 48.34085 11.75321 1481 ft 0 kts 82°
2026-05-06 15:15 48.34091 11.75405 1479 ft 31 kts 83°
2026-05-06 15:15 48.34145 11.76109 1480 ft 101 kts 83°
2026-05-06 15:15 48.34249 11.77460 1473 ft 156 kts 83°
2026-05-06 15:15 48.34390 11.79296 1619 ft 186 kts 83°
2026-05-06 15:16 48.34528 11.81193 2438 ft 181 kts 83°
2026-05-06 15:16 48.34660 11.83060 3086 ft 180 kts 83°
2026-05-06 15:16 48.34799 11.84903 3635 ft 180 kts 83°
2026-05-06 15:16 48.34934 11.86772 4214 ft 180 kts 88°
2026-05-06 15:17 48.34600 11.88564 4719 ft 183 kts 127°
2026-05-06 15:17 48.33533 11.89722 4950 ft 203 kts 163°
2026-05-06 15:17 48.32088 11.90272 5133 ft 226 kts 165°
2026-05-06 15:17 48.30472 11.90894 5354 ft 252 kts 165°
2026-05-06 15:18 48.28713 11.91588 5856 ft 267 kts 165°
2026-05-06 15:18 48.26909 11.92318 6630 ft 270 kts 165°
2026-05-06 15:18 48.25111 11.93072 7388 ft 273 kts 165°
2026-05-06 15:18 48.23257 11.93720 8176 ft 275 kts 176°
2026-05-06 15:19 48.21339 11.93820 9010 ft 275 kts 180°
2026-05-06 15:19 48.19420 11.93891 9826 ft 276 kts 180°
2026-05-06 15:19 48.17443 11.93957 10206 ft 295 kts 180°
2026-05-06 15:19 48.15312 11.94025 10426 ft 315 kts 180°
2026-05-06 15:20 48.13089 11.94100 10962 ft 323 kts 180°
2026-05-06 15:20 48.10816 11.94179 11614 ft 327 kts 181°
2026-05-06 15:20 48.08530 11.94258 12292 ft 330 kts 181°
2026-05-06 15:20 48.06253 11.94336 12948 ft 334 kts 181°
2026-05-06 15:21 48.03917 11.94419 13605 ft 337 kts 181°
2026-05-06 15:21 48.01564 11.94504 14191 ft 340 kts 181°
2026-05-06 15:21 47.99186 11.94586 14811 ft 342 kts 181°
2026-05-06 15:21 47.96802 11.94670 15443 ft 343 kts 181°
2026-05-06 15:22 47.94413 11.94757 16088 ft 344 kts 181°
2026-05-06 15:22 47.92009 11.94843 16705 ft 346 kts 182°
2026-05-06 15:22 47.89603 11.94898 17329 ft 347 kts 183°
2026-05-06 15:22 47.87190 11.94879 17946 ft 348 kts 184°
2026-05-06 15:23 47.84763 11.94817 18477 ft 349 kts 184°
2026-05-06 15:23 47.82327 11.94740 18999 ft 351 kts 185°
2026-05-06 15:23 47.79874 11.94665 19520 ft 353 kts 185°
2026-05-06 15:23 47.77410 11.94600 20023 ft 355 kts 185°
2026-05-06 15:24 47.74960 11.94547 20547 ft 357 kts 185°
2026-05-06 15:24 47.72467 11.94503 21057 ft 360 kts 185°
2026-05-06 15:24 47.69957 11.94461 21561 ft 362 kts 185°
2026-05-06 15:24 47.67395 11.94417 21993 ft 364 kts 185°
2026-05-06 15:25 47.64887 11.94374 22339 ft 366 kts 185°
2026-05-06 15:25 47.62322 11.94330 22788 ft 369 kts 185°
2026-05-06 15:25 47.59739 11.94288 23268 ft 371 kts 185°
2026-05-06 15:25 47.57146 11.94244 23646 ft 374 kts 185°
2026-05-06 15:26 47.54530 11.94199 24038 ft 376 kts 185°
2026-05-06 15:26 47.51906 11.94154 24433 ft 378 kts 185°
2026-05-06 15:26 47.49271 11.94108 24820 ft 380 kts 185°
2026-05-06 15:26 47.46621 11.94061 25190 ft 381 kts 186°
2026-05-06 15:27 47.44000 11.94010 25562 ft 382 kts 186°
2026-05-06 15:27 47.41361 11.93653 25910 ft 380 kts 192°
2026-05-06 15:27 47.38700 11.93117 26295 ft 382 kts 192°
2026-05-06 15:27 47.36097 11.92597 26632 ft 383 kts 192°
2026-05-06 15:28 47.33449 11.92069 26983 ft 384 kts 192°
2026-05-06 15:28 47.30791 11.91538 27330 ft 386 kts 192°
2026-05-06 15:28 47.28123 11.91004 27682 ft 388 kts 192°
2026-05-06 15:28 47.25437 11.90469 28044 ft 389 kts 192°
2026-05-06 15:29 47.22748 11.89938 28393 ft 390 kts 193°
2026-05-06 15:29 47.20059 11.89406 28770 ft 391 kts 193°
2026-05-06 15:29 47.17351 11.88870 29113 ft 393 kts 193°
2026-05-06 15:29 47.14668 11.88341 29429 ft 394 kts 193°
2026-05-06 15:30 47.11948 11.87801 29753 ft 395 kts 193°
2026-05-06 15:30 47.09231 11.87263 29945 ft 392 kts 193°
2026-05-06 15:30 47.06518 11.86731 30098 ft 395 kts 193°
2026-05-06 15:30 47.03784 11.86191 30298 ft 396 kts 193°
2026-05-06 15:31 47.01059 11.85632 30482 ft 395 kts 194°
2026-05-06 15:31 46.98354 11.84922 30784 ft 393 kts 197°
2026-05-06 15:31 46.96584 11.84380 30956 ft 391 kts 197°
2026-05-06 15:32 46.90425 11.82288 31453 ft 390 kts 198°
2026-05-06 15:32 46.87784 11.81387 31756 ft 389 kts 198°
2026-05-06 15:32 46.85140 11.80504 32018 ft 389 kts 198°
2026-05-06 15:32 46.83393 11.79935 32279 ft 387 kts 197°
2026-05-06 15:33 46.80765 11.79099 32654 ft 385 kts 197°
2026-05-06 15:33 46.78142 11.78275 32828 ft 384 kts 197°
2026-05-06 15:33 46.72998 11.76679 32856 ft 373 kts 197°
2026-05-06 15:34 46.67925 11.75090 32860 ft 372 kts 197°
2026-05-06 15:34 46.62919 11.73467 32858 ft 369 kts 201°
2026-05-06 15:35 46.58401 11.70194 32867 ft 362 kts 218°
2026-05-06 15:35 46.54359 11.65840 32870 ft 360 kts 218°